GW1542 Weather Reports


time (UTC)temp
C
wind
direction
speed
KPH
gust
KPH
rain 1hr
cm
rain 24hr
cm
rain mn
cm
humidity
%
barometer
mb
20260510065734 7 250 1.6 1.6 0.00 0.00 0.00 95 1014.2
20260510065141 7 204 1.6 1.6 0.00 0.00 0.00 95 1014.2
20260510063923 7 239 1.6 1.6 0.00 0.00 0.00 96 1014.2
20260510063330 7 241 0.0 1.6 0.00 0.00 0.00 95 1014.2
20260510062709 7 230 0.0 0.0 0.00 0.00 0.00 95 1014.2
20260510062146 7 227 0.0 0.0 0.00 0.00 0.00 97 1014.2
20260510061534 6 255 1.6 3.2 0.00 0.00 0.00 96 1014.2
20260510060949 6 231 0.0 0.0 0.00 0.00 0.00 96 1014.2
20260510060341 6 218 1.6 1.6 0.00 0.00 0.00 95 1014.5
20260510055725 6 129 3.2 3.2 0.00 0.00 0.00 96 1014.5
20260510055118 6 243 1.6 1.6 0.00 0.00 0.00 96 1014.5
20260510054538 7 233 0.0 0.0 0.00 0.00 0.00 97 1014.5
20260510053314 6 233 1.6 1.6 0.00 0.00 0.00 96 1014.9
20260510052149 6 232 0.0 0.0 0.00 0.00 0.00 95 1014.5
20260510051548 6 246 0.0 1.6 0.00 0.00 0.00 95 1014.5
20260510050912 6 227 0.0 0.0 0.00 0.00 0.00 95 1014.9
20260510050332 6 222 0.0 0.0 0.00 0.00 0.00 94 1014.5
20260510045721 6 244 0.0 0.0 0.00 0.00 0.00 95 1014.5
20260510045110 6 242 0.0 0.0 0.00 0.00 0.00 95 1014.9
20260510043931 6 226 1.6 1.6 0.00 0.00 0.00 94 1014.9
20260510043338 6 219 0.0 0.0 0.00 0.00 0.00 93 1014.2
20260510042711 6 219 0.0 0.0 0.00 0.00 0.00 93 1014.2
20260510042145 6 220 0.0 0.0 0.00 0.00 0.00 91 1014.2
20260510041533 6 220 0.0 0.0 0.00 0.00 0.00 91 1014.2
20260510040924 7 222 0.0 0.0 0.00 0.00 0.00 91 1014.2
20260510040343 7 335 0.0 1.6 0.00 0.00 0.00 92 1014.2
20260510035747 7 206 1.6 1.6 0.00 0.00 0.00 91 1014.2
20260510035123 7 231 0.0 0.0 0.00 0.00 0.00 91 1014.2
20260510034541 7 231 0.0 0.0 0.00 0.00 0.00 90 1014.2
20260510033910 7 229 0.0 0.0 0.00 0.00 0.00 90 1014.5
20260510033316 7 232 0.0 0.0 0.00 0.00 0.00 90 1014.2
20260510032752 7 245 0.0 1.6 0.00 0.00 0.00 91 1014.2
20260510032147 7 225 1.6 1.6 0.00 0.00 0.00 93 1014.2
20260510031524 6 239 0.0 0.0 0.00 0.00 0.00 92 1013.8
20260510030919 7 245 0.0 0.0 0.00 0.00 0.00 91 1013.8
20260510030328 7 208 1.6 1.6 0.00 0.00 0.00 91 1014.2
20260510025732 7 205 0.0 1.6 0.00 0.00 0.00 92 1014.2
20260510025123 7 224 0.0 0.0 0.00 0.00 0.00 91 1013.8
20260510023940 7 215 0.0 0.0 0.00 0.00 0.00 89 1013.8
20260510022739 7 194 0.0 0.0 0.00 0.00 0.00 90 1013.8
20260510021510 7 224 0.0 0.0 0.00 0.00 0.00 88 1013.5
20260510020952 7 178 0.0 0.0 0.00 0.00 0.00 88 1013.8
20260510015740 7 194 1.6 3.2 0.00 0.00 0.00 89 1013.8
20260510015143 7 199 0.0 1.6 0.00 0.00 0.00 89 1013.5
20260510014511 7 277 1.6 1.6 0.00 0.00 0.00 86 1013.5
20260510013946 8 221 0.0 0.0 0.00 0.00 0.00 86 1013.2
20260510012725 8 182 1.6 1.6 0.00 0.00 0.00 87 1012.8
20260510012131 8 228 0.0 0.0 0.00 0.00 0.00 84 1013.2
20260510011556 8 209 0.0 0.0 0.00 0.00 0.00 83 1012.8
20260510010951 8 212 0.0 0.0 0.00 0.00 0.00 81 1012.8
20260510010348 9 212 0.0 0.0 0.00 0.00 0.00 82 1012.8
20260510005143 10 182 1.6 1.6 0.00 0.00 0.00 80 1012.5
20260510004550 10 198 0.0 1.6 0.00 0.00 0.00 79 1012.5
20260510003307 10 200 0.0 0.0 0.00 0.00 0.00 75 1012.1
20260510002716 11 173 0.0 1.6 0.00 0.00 0.00 73 1012.1
20260510001511 11 228 0.0 0.0 0.00 0.00 0.00 72 1012.1
20260510000943 12 222 0.0 0.0 0.00 0.00 0.00 69 1012.1
20260510000349 13 224 0.0 0.0 0.00 0.00 0.00 66 1012.1
20260509235710 13 233 0.0 0.0 0.00 0.00 0.00 64 1011.8
20260509235126 14 250 3.2 3.2 0.00 0.00 0.00 58 1011.8
20260509234543 14 231 3.2 4.8 0.00 0.00 0.00 60 1011.8
20260509233949 15 242 0.0 0.0 0.00 0.00 0.00 61 1011.8
20260509233339 15 284 3.2 3.2 0.00 0.00 0.00 57 1012.1
20260509232130 15 298 6.4 9.7 0.00 0.00 0.00 57 1012.1
20260509231509 15 232 1.6 3.2 0.00 0.00 0.00 54 1011.8
20260509230951 15 232 11.3 14.5 0.00 0.00 0.00 54 1012.1
20260509230332 16 284 8.0 9.7 0.00 0.00 0.00 53 1011.8
20260509225146 16 226 4.8 4.8 0.00 0.00 0.00 53 1011.8
20260509224535 16 231 6.4 6.4 0.00 0.00 0.00 52 1012.1
20260509223928 15 295 8.0 11.3 0.00 0.00 0.00 55 1012.1
20260509223343 15 286 9.7 14.5 0.00 0.00 0.00 53 1012.1
20260509222130 16 216 4.8 6.4 0.00 0.00 0.00 53 1012.5
20260509220917 16 209 8.0 11.3 0.00 0.00 0.00 53 1012.5
20260509220325 16 248 3.2 3.2 0.00 0.00 0.00 53 1012.1
20260509215723 16 269 6.4 6.4 0.00 0.00 0.00 52 1012.1
20260509215134 16 212 1.6 1.6 0.00 0.00 0.00 52 1012.1
20260509214520 16 268 8.0 11.3 0.00 0.00 0.00 51 1012.1
20260509213335 16 206 4.8 6.4 0.00 0.00 0.00 51 1012.1
20260509212739 16 229 6.4 11.3 0.00 0.00 0.00 51 1012.1
20260509212145 16 180 9.7 12.9 0.00 0.00 0.00 49 1012.1
20260509211542 16 220 6.4 6.4 0.00 0.00 0.00 48 1011.8
20260509210931 17 248 6.4 9.7 0.00 0.00 0.00 49 1011.8
20260509210318 17 264 8.0 12.9 0.00 0.00 0.00 49 1011.8
20260509205747 17 244 9.7 14.5 0.00 0.00 0.00 48 1011.5
20260509205134 17 212 3.2 3.2 0.00 0.00 0.00 52 1011.5
20260509204537 17 221 4.8 4.8 0.00 0.00 0.00 49 1011.8
20260509203950 17 237 1.6 3.2 0.00 0.00 0.00 47 1011.5
20260509203321 17 242 6.4 6.4 0.00 0.00 0.00 50 1011.8
20260509202753 17 251 3.2 4.8 0.00 0.00 0.00 48 1011.5
20260509202126 17 300 4.8 6.4 0.00 0.00 0.00 46 1011.5
20260509201532 17 242 6.4 6.4 0.00 0.00 0.00 46 1011.5
20260509200939 17 228 6.4 6.4 0.00 0.00 0.00 45 1011.1
20260509200309 17 279 12.9 16.1 0.00 0.00 0.00 45 1011.5
20260509195125 18 264 6.4 6.4 0.00 0.00 0.00 43 1011.5
20260509193915 17 268 3.2 4.8 0.00 0.00 0.00 46 1011.5
20260509193337 16 228 1.6 1.6 0.00 0.00 0.00 47 1011.5
20260509192748 16 265 4.8 6.4 0.00 0.00 0.00 48 1011.5
20260509191528 16 251 4.8 4.8 0.00 0.00 0.00 46 1011.5
20260509190313 16 252 3.2 6.4 0.00 0.00 0.00 46 1011.5
20260509185750 16 246 8.0 11.3 0.00 0.00 0.00 47 1011.5
20260509185114 16 273 6.4 9.7 0.00 0.00 0.00 48 1011.5
20260509184531 16 237 8.0 12.9 0.00 0.00 0.00 44 1011.5
20260509183936 16 156 3.2 4.8 0.00 0.00 0.00 43 1011.5
20260509183343 16 285 9.7 14.5 0.00 0.00 0.00 43 1011.5
20260509182727 16 286 8.0 11.3 0.00 0.00 0.00 45 1011.5
20260509182153 16 240 3.2 3.2 0.00 0.00 0.00 47 1011.5
20260509181515 16 262 8.0 14.5 0.00 0.00 0.00 47 1011.5
20260509180942 16 217 6.4 6.4 0.00 0.00 0.00 45 1011.5
20260509180315 16 257 6.4 6.4 0.00 0.00 0.00 48 1011.5
20260509175737 16 284 6.4 9.7 0.00 0.00 0.00 47 1011.5
20260509175152 17 320 3.2 4.8 0.00 0.00 0.00 45 1011.5
20260509174526 16 254 4.8 4.8 0.00 0.00 0.00 54 1011.8
20260509173310 16 293 12.9 16.1 0.00 0.00 0.00 51 1012.1
20260509172726 16 231 8.0 12.9 0.00 0.00 0.00 49 1011.8
20260509171510 16 277 4.8 6.4 0.00 0.00 0.00 55 1011.8
20260509170921 15 242 3.2 4.8 0.00 0.00 0.00 53 1012.1
20260509170323 15 292 8.0 11.3 0.00 0.00 0.00 53 1012.1
20260509165719 15 294 6.4 6.4 0.00 0.00 0.00 54 1011.8
20260509165132 14 245 0.0 0.0 0.00 0.00 0.00 57 1012.1
20260509164539 14 327 4.8 4.8 0.00 0.00 0.00 55 1012.1
20260509163934 14 228 1.6 1.6 0.00 0.00 0.00 56 1012.1
20260509162115 13 212 1.6 3.2 0.00 0.00 0.00 57 1012.5
20260509161540 13 253 1.6 1.6 0.00 0.00 0.00 58 1012.1
20260509160930 13 241 3.2 4.8 0.00 0.00 0.00 56 1012.1
20260509160345 13 312 4.8 4.8 0.00 0.00 0.00 56 1012.1
20260509155716 13 276 4.8 6.4 0.00 0.00 0.00 55 1012.5
20260509154540 13 234 1.6 3.2 0.00 0.00 0.00 55 1012.8
20260509153940 13 220 3.2 4.8 0.00 0.00 0.00 53 1012.5
20260509153324 13 254 3.2 3.2 0.00 0.00 0.00 54 1012.5
20260509152128 13 225 3.2 3.2 0.00 0.00 0.00 53 1012.5
20260509150915 13 223 4.8 6.4 0.00 0.00 0.00 54 1012.5
20260509150315 13 214 1.6 1.6 0.00 0.00 0.00 53 1012.5
20260509145740 13 294 9.7 12.9 0.00 0.00 0.00 52 1012.5
20260509145127 13 289 6.4 6.4 0.00 0.00 0.00 52 1012.1
20260509144508 13 231 0.0 1.6 0.00 0.00 0.00 52 1012.1
20260509143907 13 293 3.2 3.2 0.00 0.00 0.00 52 1011.8
20260509142746 13 240 3.2 4.8 0.00 0.00 0.00 54 1012.1
20260509141517 14 228 1.6 3.2 0.00 0.00 0.00 50 1012.1
20260509140924 14 200 3.2 3.2 0.00 0.00 0.00 51 1011.8
20260509140344 13 229 4.8 4.8 0.00 0.00 0.00 55 1012.1
20260509135710 13 181 3.2 3.2 0.00 0.00 0.00 58 1012.1
20260509135112 13 199 1.6 1.6 0.00 0.00 0.00 60 1012.5
20260509134545 12 222 0.0 1.6 0.00 0.00 0.00 57 1012.5
20260509133914 12 241 0.0 0.0 0.00 0.00 0.00 57 1012.1
20260509132743 11 217 0.0 0.0 0.00 0.00 0.00 61 1012.8
20260509132132 11 264 3.2 4.8 0.00 0.00 0.00 65 1012.8
20260509131511 11 234 0.0 0.0 0.00 0.00 0.00 62 1012.5
20260509130917 10 237 1.6 1.6 0.00 0.00 0.00 63 1012.8
20260509130311 10 290 4.8 4.8 0.00 0.00 0.00 62 1012.5
20260509125721 10 270 3.2 3.2 0.00 0.00 0.00 65 1012.5
20260509125123 10 247 1.6 3.2 0.00 0.00 0.00 65 1012.1
20260509123935 10 217 0.0 1.6 0.00 0.00 0.00 70 1012.5
20260509123351 10 226 0.0 1.6 0.00 0.00 0.00 70 1012.5
20260509122746 10 241 0.0 0.0 0.00 0.00 0.00 72 1012.5
20260509122142 9 241 0.0 0.0 0.00 0.00 0.00 71 1012.5
20260509121510 8 241 0.0 1.6 0.00 0.00 0.00 73 1012.5
20260509120914 8 241 0.0 0.0 0.00 0.00 0.00 74 1012.5
20260509120320 8 241 0.0 0.0 0.00 0.00 0.00 78 1012.8
20260509115739 8 242 0.0 0.0 0.00 0.00 0.00 81 1012.8
20260509115121 8 239 1.6 1.6 0.00 0.00 0.00 79 1012.8
20260509113926 7 241 0.0 0.0 0.00 0.00 0.00 80 1012.8
20260509113325 7 235 0.0 0.0 0.00 0.00 0.00 80 1013.2
20260509112131 7 235 0.0 0.0 0.00 0.00 0.00 81 1012.8
20260509110934 7 218 0.0 0.0 0.00 0.00 0.00 83 1012.5
20260509110313 7 218 0.0 0.0 0.00 0.00 0.00 81 1012.8
20260509104545 7 205 0.0 0.0 0.00 0.00 0.00 80 1012.5
20260509103940 7 168 1.6 1.6 0.00 0.00 0.00 78 1012.5
20260509103314 7 165 1.6 1.6 0.00 0.00 0.00 79 1012.8
20260509102735 7 228 0.0 0.0 0.00 0.00 0.00 77 1012.5
20260509102123 6 227 0.0 0.0 0.00 0.00 0.00 80 1012.5
20260509101514 6 228 0.0 0.0 0.00 0.00 0.00 80 1012.5
20260509100920 6 228 0.0 0.0 0.00 0.00 0.00 80 1012.5
20260509100325 6 228 0.0 0.0 0.00 0.00 0.00 80 1012.5
20260509095736 7 230 0.0 0.0 0.00 0.00 0.00 80 1012.5
20260509095147 7 230 0.0 1.6 0.00 0.00 0.00 79 1012.5
20260509094533 7 230 0.0 0.0 0.00 0.00 0.00 78 1012.8
20260509093330 7 231 0.0 0.0 0.00 0.00 0.00 73 1012.5
20260509092117 8 232 0.0 0.0 0.00 0.00 0.00 73 1012.8
20260509090945 8 232 0.0 0.0 0.00 0.00 0.00 71 1012.8
20260509090350 8 232 0.0 0.0 0.00 0.00 0.00 72 1012.8
20260509085712 8 232 0.0 0.0 0.00 0.00 0.00 68 1012.8
20260509085139 8 233 0.0 0.0 0.00 0.00 0.00 69 1012.8
20260509084533 8 233 0.0 0.0 0.00 0.00 0.00 71 1012.8
20260509083918 8 244 1.6 1.6 0.00 0.00 0.00 70 1013.2
20260509083337 8 239 1.6 1.6 0.00 0.00 0.00 67 1012.8
20260509082748 8 244 0.0 1.6 0.00 0.00 0.00 67 1012.8
20260509080323 8 275 3.2 3.2 0.00 0.00 0.00 70 1013.2
20260509075754 8 231 0.0 0.0 0.00 0.00 0.00 69 1013.2
20260509075135 8 263 1.6 3.2 0.00 0.00 0.00 69 1013.2
20260509073323 8 227 0.0 1.6 0.00 0.00 0.00 69 1013.2
20260509072738 8 244 1.6 1.6 0.00 0.00 0.00 67 1013.2
20260509071519 8 229 1.6 1.6 0.00 0.00 0.00 67 1013.2
20260509070324 8 221 0.0 1.6 0.00 0.00 0.00 68 1013.2